Juliana Airport, Saint Maartin

6:26 PM AST on July 27, 2016 (GMT -0400)
Juliana Airport

Weather History for 78866 - December, 2013

Change the Weather History Date:

Thursday, December 12, 2013

  Actual Average Record
Temperature  
Mean Temperature 80 °F -  
Max Temperature 84 °F 82 °F - ()
Min Temperature 77 °F 73 °F - ()
Cooling Degree Days 16    
Growing Degree Days 30 (Base 50)    
Moisture  
Dew Point 70 °F    
Average Humidity 68    
Maximum Humidity 78    
Minimum Humidity 56    
Precipitation  
Precipitation 0.00 in 0.10 in - ()
Sea Level Pressure  
Sea Level Pressure 30.02 in    
Wind  
Wind Speed 11 mph ()    
Max Wind Speed 15 mph    
Max Gust Speed 23 mph    
Visibility 6.9 miles    
Events Rain    
T = Trace of Precipitation, MM = Missing Value Source: Averaged Metar Reports

Daily Weather History Graph

Daily Weather History Graph

Search for Another Location

Airport or City:

Trip Planner

Search our weather history database for the weather conditions in past years. The results will help you decide how hot, cold, wet, or windy it might be!

Date:

Astronomy

Dec. 12, 2013 Rise Set
Actual Time 6:34 AM AST 5:38 PM AST
Civil Twilight 6:10 AM AST 6:01 PM AST
Nautical Twilight 5:43 AM AST 6:29 PM AST
Astronomical Twilight 5:16 AM AST 6:55 PM AST
Moon 2:17 PM AST (12/12) 2:21 AM AST (12/12)
Length of Visible Light 11h 51m
Length of Day
11h 03m
Waxing Gibbous, 80% of the Moon is Illuminated
Dec 12
Waxing Gibbous
Dec 17
Full
Dec 25
Last Quarter
Jan 1
New
Jan 7
First Quarter

Hourly Weather History & Observations

Time (AST) Temp. Heat Index Dew Point Humidity Pressure Visibility Wind Dir Wind Speed Gust Speed Precip Events Conditions
12:00 AM 78.8 °F - 69.8 °F 74% 30.06 in 6.2 mi East 13.8 mph - N/A   Scattered Clouds
1:00 AM 78.8 °F - 69.8 °F 74% 30.04 in 6.2 mi East 15.0 mph - N/A   Scattered Clouds
2:00 AM 78 °F - 69 °F 68% 30.03 in 16 mi East 10.4 mph - -   Partly Cloudy
2:00 AM 78.8 °F - 69.8 °F 74% 30.01 in 6.2 mi East 10.4 mph - N/A   Partly Cloudy
3:00 AM 78.8 °F - 69.8 °F 74% 30.01 in 6.2 mi East 12.7 mph - N/A   Partly Cloudy
4:00 AM 78.8 °F - 69.8 °F 74% 30.01 in 6.2 mi East 11.5 mph - N/A   Partly Cloudy
5:00 AM 79 °F - 69 °F 64% 30.01 in 16 mi East 12.7 mph - -   Scattered Clouds
5:00 AM 78.8 °F - 69.8 °F 74% 30.01 in 6.2 mi East 12.7 mph - N/A   Partly Cloudy
6:00 AM 78.8 °F - 69.8 °F 74% 30.01 in 6.2 mi East 10.4 mph 23.0 mph N/A   Mostly Cloudy
7:00 AM 78.8 °F - 71.6 °F 78% 30.04 in 6.2 mi ENE 13.8 mph - N/A   Partly Cloudy
8:00 AM 80 °F - 71 °F 67% 30.06 in 22 mi East 12.7 mph - -   Mostly Cloudy
8:00 AM 80.6 °F 84.6 °F 71.6 °F 74% 30.04 in 6.2 mi East 12.7 mph - N/A   Scattered Clouds
9:00 AM 82.4 °F 87.2 °F 71.6 °F 70% 30.06 in 6.2 mi East 12.7 mph - N/A   Scattered Clouds
10:00 AM 80.6 °F 84.6 °F 71.6 °F 74% 30.06 in 6.2 mi SE 13.8 mph - N/A   Scattered Clouds
11:00 AM 82 °F - 71 °F 62% 30.07 in 6 mi ENE 11.5 mph - - Rain Light Rain Showers
11:00 AM 82.4 °F 87.2 °F 71.6 °F 70% 30.06 in 6.2 mi ENE 11.5 mph - N/A   Scattered Clouds
12:00 PM 82.4 °F 87.2 °F 71.6 °F 70% 30.04 in 6.2 mi East 11.5 mph - N/A   Partly Cloudy
1:00 PM 84.2 °F 89.6 °F 71.6 °F 66% 30.01 in 6.2 mi ENE 11.5 mph - N/A   Scattered Clouds
2:00 PM 82 °F - 71 °F 62% 29.99 in 22 mi East 15.0 mph - -   Partly Cloudy
2:00 PM 82.4 °F 87.2 °F 71.6 °F 70% 29.98 in 6.2 mi East 15.0 mph - N/A   Scattered Clouds
3:00 PM 84.2 °F 88.4 °F 69.8 °F 62% 29.98 in 6.2 mi East 11.5 mph - N/A   Partly Cloudy
4:00 PM 82.4 °F 87.2 °F 71.6 °F 70% 29.98 in 6.2 mi East 11.5 mph - N/A   Partly Cloudy
5:00 PM 81 °F - 68 °F 56% 29.99 in 22 mi East 10.4 mph - -   Scattered Clouds
5:00 PM 80.6 °F 83.2 °F 68.0 °F 65% 29.98 in 6.2 mi East 10.4 mph - N/A   Partly Cloudy
6:00 PM 80.6 °F 83.2 °F 68.0 °F 65% 29.98 in 6.2 mi East 8.1 mph - N/A   Partly Cloudy
7:00 PM 80.6 °F 83.2 °F 68.0 °F 65% 30.01 in 6.2 mi East 9.2 mph - N/A   Partly Cloudy
8:00 PM 80 °F - 68 °F 59% 30.04 in 22 mi East 9.2 mph - -  
8:00 PM 80.6 °F 83.2 °F 68.0 °F 65% 30.04 in 6.2 mi East 9.2 mph - N/A   Partly Cloudy
9:00 PM 80.6 °F 83.2 °F 68.0 °F 65% 30.04 in 6.2 mi East 10.4 mph - N/A   Partly Cloudy
10:00 PM 80.6 °F 83.2 °F 68.0 °F 65% 30.04 in 6.2 mi East 11.5 mph - N/A   Partly Cloudy
11:00 PM 79 °F - 69 °F 63% 30.06 in 22 mi East 10.4 mph - -   Scattered Clouds
11:00 PM 78.8 °F - 68.0 °F 69% 30.04 in 6.2 mi East 10.4 mph - N/A   Partly Cloudy